Weather History for Somerville, NJ

Change the Weather History Date:

Tuesday, October 15, 2013

  Actual Average Record
Temperature  
Mean Temperature 58 °F -  
Max Temperature 73 °F 65 °F 85 °F (1956)
Min Temperature 43 °F 41 °F 27 °F (1937)
Degree Days  
Heating Degree Days 7    
Growing Degree Days 8 (Base 50)    
Moisture  
Dew Point 44 °F    
Average Humidity 71    
Maximum Humidity 97    
Minimum Humidity 31    
Precipitation  
Precipitation 0.00 in - - ()
Sea Level Pressure  
Sea Level Pressure 30.18 in    
Wind  
Wind Speed 2 mph (NW)    
Max Wind Speed 10 mph    
Max Gust Speed 16 mph    
Visibility 9 miles    
Events      
Averages and records for this station are not official NWS values.
T = Trace of Precipitation, MM = Missing Value Source: NWS Daily Summary

Daily Weather History Graph

Daily Weather History Graph

Search for Another Location

Airport:

Trip Planner

Search our weather history database for the weather conditions in past years. The results will help you decide how hot, cold, wet, or windy it might be!

Date:

Astronomy

Oct. 15, 2013 Rise Set
Actual Time 7:09 AM EDT 6:18 PM EDT
Civil Twilight 6:42 AM EDT 6:45 PM EDT
Nautical Twilight 6:10 AM EDT 7:17 PM EDT
Astronomical Twilight 5:39 AM EDT 7:48 PM EDT
Moon 4:22 PM EDT (10/15) 3:28 AM EDT (10/15)
Length of Visible Light 12h 03m
Length of Day
11h 08m
Waxing Gibbous, 87% of the Moon is Illuminated
Oct 15
Waxing Gibbous
Oct 18
Full
Oct 26
Last Quarter
Nov 3
New
Nov 10
First Quarter

Hourly Weather History & Observations

Time (EDT) Temp. Windchill Dew Point Humidity Pressure Visibility Wind Dir Wind Speed Gust Speed Precip Events Conditions
12:53 AM 46.9 °F - 45.0 °F 93% 30.25 in 5.0 mi Calm Calm - N/A   Clear
1:53 AM 46.0 °F 43.9 °F 45.0 °F 96% 30.24 in 7.0 mi NW 4.6 mph - N/A   Clear
2:53 AM 46.0 °F - 45.0 °F 96% 30.23 in 9.0 mi Calm Calm - N/A   Clear
3:53 AM 45.0 °F 43.5 °F 43.0 °F 93% 30.23 in 10.0 mi NW 3.5 mph - N/A   Clear
4:53 AM 45.0 °F 43.5 °F 43.0 °F 93% 30.22 in 9.0 mi NW 3.5 mph - N/A   Clear
5:53 AM 44.1 °F 42.5 °F 43.0 °F 96% 30.22 in 8.0 mi NW 3.5 mph - N/A   Clear
6:53 AM 43.0 °F - 42.1 °F 97% 30.21 in 5.0 mi Calm Calm - N/A   Clear
7:53 AM 45.0 °F - 43.0 °F 93% 30.22 in 8.0 mi Calm Calm - N/A   Clear
8:53 AM 51.1 °F - 48.9 °F 92% 30.24 in 10.0 mi Calm Calm - N/A   Clear
9:53 AM 59.0 °F - 53.1 °F 81% 30.24 in - Calm Calm - N/A   Unknown
10:53 AM 64.9 °F - 53.1 °F 65% 30.22 in 10.0 mi Calm Calm - N/A   Unknown
11:53 AM 69.1 °F - 53.1 °F 57% 30.20 in 10.0 mi ENE 3.5 mph - N/A   Clear
12:53 PM 72.0 °F - 54.0 °F 53% 30.18 in 10.0 mi Calm Calm - N/A   Scattered Clouds
1:53 PM 73.0 °F - 52.0 °F 48% 30.16 in 10.0 mi Calm Calm - N/A   Clear
2:53 PM 72.0 °F - 42.1 °F 34% 30.14 in 10.0 mi SSE 10.4 mph 16.1 mph N/A   Clear
3:53 PM 71.1 °F - 39.9 °F 32% 30.12 in 10.0 mi SE 8.1 mph - N/A   Clear
4:53 PM 69.1 °F - 44.1 °F 40% 30.12 in 10.0 mi Variable 5.8 mph - N/A   Clear
5:53 PM 64.0 °F - 33.1 °F 31% 30.13 in 10.0 mi Calm Calm - N/A   Clear
6:53 PM 59.0 °F - 32.0 °F 36% 30.14 in 10.0 mi Calm Calm - N/A   Clear
7:53 PM 53.1 °F - 41.0 °F 64% 30.16 in 10.0 mi Calm Calm - N/A   Clear
8:53 PM 50.0 °F - 37.9 °F 63% 30.14 in 10.0 mi Calm Calm - N/A   Clear
9:53 PM 48.0 °F - 41.0 °F 77% 30.14 in 10.0 mi NW 3.5 mph - N/A   Clear
10:53 PM 46.9 °F - 42.1 °F 83% 30.14 in 10.0 mi NW 3.5 mph - N/A   Clear
11:24 PM 48.2 °F - 42.8 °F 82% 30.13 in 10.0 mi NW 3.5 mph - N/A   Mostly Cloudy
11:53 PM 48.9 °F - 44.1 °F 83% 30.12 in 10.0 mi Calm Calm - N/A   Mostly Cloudy